THORAD AGENA D DEB, 42543

Orbit data source: Space-Track

THORAD AGENA D DEB, 42543 is space debris in SSO originally from a launch on Wed, 08 Apr 1970 UTC launched from the Air Force Western Test Range (AFWTR). Debris objects in space refer to the collection of defunct objects orbiting the Earth. Examples of debris include non-operational satellites, rocket bodies, and fragments generated from explosions, collisions, or faulty payload assembly.

Loading next visibility...
Identifier
42543, 1970-025SZ
Orbit
SSO
Country
Flag of USUS
Related business
Manufacturer
Unknown
Mission
Spacecraft
Bus & Motor
Unknown
Mass
Unknown
Launch date (UTC)
1970-04-08 (56 years ago)
Launch vehicle
Unknown
Launch site
Air Force Western Test Range (AFWTR)
Object type
Payload
Rocket body
Debris
Shape & HBR
Unknown shape, 0.1 m
Radar Cross Section
Small (<0.1 m²)

Expand to show TLE details & history
Last TLE update: 2 days ago

TLE from 2 days ago
0 THORAD AGENA D DEB
1 42543U 70025SZ  26171.31947203  .00000290  00000-0  67173-3 0  9996
2 42543  99.7783 184.5417 0178464 336.7747  22.5383 13.28076039608602
Epoch: 2026-06-20T07:40Z
TLE epoch observation values (Epoch: 2026-06-20T07:40:02.383Z)
Latitude
-0.00002°
Longitude
160.99598°
Altitude
1,032.967 km
Speed
7.395 km/s
True Right ascension
12h 18m 10s
True Declination
0° 00' 00"
Sunlit
Object was in daylight at epoch
Visualization orbit readout
Latitude
Unknown
Longitude
Unknown
Altitude
Unknown
Speed
Unknown
Apparent Right ascension
Unknown
Apparent Declination
Unknown
Sunlit
N/A
Visualization observer readout
Local Sidereal Time
21:39:29
Azimuth
Unknown
Elevation
Unknown
Doppler factor
Unknown
Orbital elements
Apogee altitude
1,285.737 km
Perigee altitude
1,016.988 km
Semi-major axis
7,529.499 km
Eccentricity
0.01785
Inclination
99.7783°
RAAN
184.5417°
Arg. of periapsis
336.7747°
True anomaly
23.33862°
Mean anomaly
22.5383°
Eccentric anomaly
22.93679°
Mean motion
3.32196 °/min
Orbital period
108.37 mins
BSTAR
0.00067173
Loading maneuver chart data...
Computing Atmospheric mass density...

Documentation

Showing up to 5 results
|